[[{"header":{"parameterUnit":"m.s-1","parameterCategory":1,"la1":30.2991,"la2":30.254,"lo1":-89.0895,"lo2":-89.0444,"dy":0.0017,"dx":0.0017,"nx":28,"ny":28,"refTime":"2023-09-30T03:00:00:Z","depth":0,"parameterNumber":2,"parameterNumberName":"U-component_of_WINDS"},"data":[0,0,0,0,0,0,0,0,0,0,0,0,0,0,0,0,0,0,0,0,0,0,0,0,0,0,0,0,0,0,0,0,0,0,0,0,0,0,0,0,0,0,0,0,0,0,0,0,0,0,0,0,0,0,0,0,0,0,-2.0306,-2.0306,0,-2.0295,-2.0295,-2.0295,-2.0165,-2.0162,-2.0159,-2.0156,-2.0149,-2.0152,-2.0154,0,0,0,0,0,0,0,0,0,0,0,0,0,-2.0219,-2.0221,-2.0306,-2.0306,-2.0306,-2.0295,-2.0295,-2.0295,-2.0166,-2.0162,-2.0158,-2.0154,-2.0148,-2.0151,-2.0155,0,0,0,0,0,0,0,0,0,0,0,0,0,-2.0238,-2.0222,-2.0307,-2.024,-2.0234,-2.0295,-2.0295,-2.0295,-2.0167,-2.0162,-2.0157,-2.0152,-2.0147,-2.0151,-2.0155,-2.028,0,0,-2.0168,-2.017,0,0,0,0,0,0,0,0,-2.0237,-2.0241,-2.025,-2.0245,-2.0238,-2.0226,-2.0261,-2.029,-2.0168,-2.0193,-2.0155,-2.015,-2.0179,-2.018,-2.0189,-2.028,-2.028,-2.0169,-2.0171,-2.0173,-2.0174,0,0,0,0,0,0,0,-2.0235,-2.0241,-2.0302,-2.025,-2.0243,-2.0212,-2.0209,-2.0266,-2.0214,-2.019,-2.018,-2.0181,-2.0175,-2.0185,-2.0188,-2.0279,-2.0169,-2.0172,-2.0175,-2.0177,-2.0472,-2.0477,0,0,0,0,0,0,-2.0243,-2.024,-2.0302,-2.0302,-2.0225,-2.0218,-2.0214,-2.0235,-2.0213,-2.0204,-2.0185,-2.0175,-2.018,-2.0183,-2.0187,-2.0333,-2.0173,-2.0177,-2.018,-2.0467,-2.0473,-2.0479,0,0,0,0,0,0,-2.0241,-2.025,-2.0303,-2.0268,-2.0273,-2.0224,-2.0249,-2.0238,-2.0248,-2.0209,-2.0199,-2.0205,-2.0177,-2.0181,-2.0258,-2.0331,-2.0179,-2.0183,-2.0461,-2.0469,-2.0476,-2.0624,0,0,0,0,0,0,-2.024,-2.025,-2.0297,-2.027,-2.0275,-2.0373,-2.0253,-2.0241,-2.0255,-2.0242,-2.0225,-2.0218,-2.0173,-2.0252,-2.0262,-2.0334,-2.0186,-2.0454,-2.0464,-2.0473,-2.0613,-2.0636,-2.0657,0,0,0,0,0,-2.0237,-2.034,-2.03,-2.0308,-2.0332,-2.0378,-2.038,-2.0326,-2.0262,-2.0309,-2.0283,-2.0218,-2.032,-2.0261,-2.0271,-2.0345,-2.0449,-2.0461,-2.0473,-2.0603,-2.0632,-2.0656,0,0,0,0,0,0,-2.0378,-2.0335,-2.029,-2.0388,-2.0387,-2.0356,-2.0413,-2.0358,-2.0377,-2.0364,-2.0296,-2.0293,-2.0381,-2.037,-2.0304,-2.0465,-2.0373,-2.0388,-2.0469,-2.0496,-2.0517,-2.0519,-2.019,0,0,0,0,0,-2.042,-2.0459,-2.042,-2.051,-2.0512,-2.0463,-2.0481,-2.0438,-2.0435,-2.0435,-2.0415,-2.0416,-2.0448,-2.0471,-2.0498,-2.061,-2.0605,-2.0666,-2.0687,-2.0706,-2.072,-2.0778,-2.0805,-2.0518,-2.0517,-2.0517,0,0,-2.0508,-2.049,-2.0519,-2.0538,-2.0532,-2.0576,-2.0464,-2.0514,-2.0546,-2.0443,-2.0514,-2.0499,-2.0496,-2.0591,-2.0631,-2.0585,-2.0797,-2.0721,-2.0735,-2.074,-2.0793,-2.0821,-2.0845,-2.0526,-2.0524,-2.0523,0,0,-2.0691,-2.0681,-2.0754,-2.075,-2.0743,-2.0709,-2.0727,-2.0703,-2.0689,-2.0759,-2.0682,-2.0719,-2.0776,-2.0776,-2.0784,-2.0965,-2.0907,-2.0976,-2.1092,-2.1149,-2.1172,-2.1192,-2.1258,-2.1282,-2.099,-2.099,-2.099,0,-2.0803,-2.0863,-2.0799,-2.0855,-2.0866,-2.0772,-2.0846,-2.0846,-2.0849,-2.0859,-2.0806,-2.0874,-2.0865,-2.0959,-2.1003,-2.1012,-2.1031,-2.0979,-2.1174,-2.1193,-2.121,-2.1273,-2.1298,-2.0999,-2.0998,-2.0997,-2.0996,0,-2.1001,-2.1044,-2.1105,-2.1108,-2.1125,-2.119,-2.1137,-2.1162,-2.1117,-2.109,-2.1162,-2.1147,-2.117,-2.1188,-2.1146,-2.1276,-2.1248,-2.1185,-2.1092,-2.1248,-2.1305,-2.1328,-2.1011,-2.1008,-2.1005,-2.1003,0,0,-2.1276,-2.124,-2.1264,-2.1264,-2.1247,-2.1281,-2.1341,-2.1361,-2.1385,-2.1389,-2.1439,-2.1488,-2.143,-2.1439,-2.1395,-2.1446,-2.1591,-2.1377,-2.1375,-2.1419,-2.1735,-2.1784,-2.1813,-2.1551,-2.1555,-2.1559,-2.1736,0,-2.1453,-2.1554,-2.1497,-2.1606,-2.1646,-2.1556,-2.1608,-2.1605,-2.158,-2.1611,-2.1583,-2.162,-2.1539,-2.1544,-2.159,-2.1564,-2.1654,-2.155,-2.1599,-2.1602,-2.1605,-2.1842,-2.1894,-2.2062,-2.1758,-2.1761,-2.1764,0,-2.1675,-2.1687,-2.18,-2.1774,-2.1789,-2.1837,-2.1851,-2.1881,-2.1875,-2.1853,-2.1862,-2.1806,-2.1864,-2.1771,-2.1851,-2.1781,-2.1797,-2.1788,-2.1793,-2.1797,-2.1694,-2.1855,-2.2114,-2.214,-2.1799,-2.1796,-2.1793,0,-2.1866,-2.191,-2.1983,-2.1985,-2.1958,-2.1994,-2.1984,-2.1973,-2.1989,-2.2001,-2.201,-2.203,-2.2041,-2.2058,-2.2009,-2.1945,-2.2096,-2.1998,-2.2082,-2.2083,-2.212,-2.2119,-2.2388,-2.2127,-2.2127,-2.2126,-2.2126,0,-2.2072,-2.2145,-2.2068,-2.2114,-2.2193,-2.2126,-2.2207,-2.2187,-2.2178,-2.2218,-2.2141,-2.2182,-2.2113,-2.2147,-2.2108,-2.2181,-2.2187,-2.2172,-2.2161,-2.218,-2.2183,-2.2192,-2.218,-2.2133,-2.2131,-2.213,-2.2129,0,-2.23,-2.2251,-2.2325,-2.2292,-2.2285,-2.2345,-2.2317,-2.2358,-2.2326,-2.2379,-2.2388,-2.234,-2.2375,-2.2326,-2.2357,-2.2331,-2.2432,-2.2403,-2.2434,-2.2426,-2.2513,-2.2507,-2.2799,-2.2835,-2.255,-2.2553,-2.2555,0,-2.2436,-2.2489,-2.2461,-2.2482,-2.2476,-2.2511,-2.2526,-2.2462,-2.2481,-2.2477,-2.2519,-2.2547,-2.2566,-2.2627,-2.2596,-2.2619,-2.2591,-2.2692,-2.2594,-2.2611,-2.2595,-2.2593,-2.2599,-2.2713,-2.2716,-2.2719,-2.2721,0,-2.2682,-2.2655,-2.2678,-2.2694,-2.2713,-2.2722,-2.2726,-2.2748,-2.2681,-2.2706,-2.274,-2.2755,-2.2785,-2.2815,-2.283,-2.2821,-2.2762,-2.2752,-2.2773,-2.2794,-2.281,-2.2804,-2.2491,-2.2746,-2.2744,-2.2742,-2.2741,-2.274,-2.2869,-2.2912,-2.2899,-2.2928,-2.2923,-2.2928,-2.2965,-2.2937,-2.2964,-2.2983,-2.2943,-2.2987,-2.2979,-2.2992,-2.2989,-2.3024,-2.298,-2.301,-2.3018,-2.3027,-2.3041,-2.2803,-2.3026,-2.3025,-2.3024,-2.3024,-2.3023,0,-2.3113,-2.3099,-2.3126,-2.3132,-2.3155,-2.3094,-2.3094,-2.3118,-2.3157,-2.3153,-2.3173,-2.3213,-2.3241,-2.321,-2.3233,-2.3266,-2.324,-2.3275,-2.3273,-2.3272,-2.3078,-2.3058,-2.3296,-2.3296,-2.3296,-2.3296,-2.3296,-2.3296,-2.3242,-2.3313,-2.3284,-2.3351,-2.3337,-2.3378,-2.3384,-2.3388,-2.3385,-2.3431,-2.3454,-2.3433,-2.3419,-2.3439,-2.3462,-2.3452,-2.3465,-2.3511,-2.3492,-2.3312,-2.3285,-2.326,-2.3241,-2.3513,-2.3514,-2.3683,-2.3685,-2.3686]},{"header":{"parameterUnit":"m.s-1","parameterCategory":1,"la1":30.2991,"la2":30.254,"lo1":-89.0895,"lo2":-89.0444,"dy":0.0017,"dx":0.0017,"nx":28,"ny":28,"refTime":"2023-09-30T03:00:00:Z","depth":0,"parameterNumber":3,"parameterNumberName":"V-component_of_WINDS"},"data":[0,0,0,0,0,0,0,0,0,0,0,0,0,0,0,0,0,0,0,0,0,0,0,0,0,0,0,0,0,0,0,0,0,0,0,0,0,0,0,0,0,0,0,0,0,0,0,0,0,0,0,0,0,0,0,0,0,0,-1.1556,-1.1557,0,-1.1659,-1.166,-1.1662,-1.1724,-1.1724,-1.1725,-1.1725,-1.1828,-1.1831,-1.1833,0,0,0,0,0,0,0,0,0,0,0,0,0,-1.1411,-1.1413,-1.1556,-1.1557,-1.1559,-1.1659,-1.166,-1.1662,-1.1724,-1.1724,-1.1725,-1.1725,-1.1827,-1.183,-1.1833,0,0,0,0,0,0,0,0,0,0,0,0,0,-1.149,-1.1414,-1.1556,-1.1602,-1.1607,-1.1659,-1.166,-1.1662,-1.1724,-1.1724,-1.1725,-1.1725,-1.1826,-1.183,-1.1834,-1.1847,0,0,-1.1845,-1.1846,0,0,0,0,0,0,0,0,-1.1485,-1.1495,-1.1594,-1.1599,-1.1605,-1.1679,-1.1647,-1.1724,-1.1724,-1.168,-1.1725,-1.1726,-1.1778,-1.1786,-1.1804,-1.1852,-1.1856,-1.1845,-1.1847,-1.1849,-1.185,0,0,0,0,0,0,0,-1.148,-1.1491,-1.1597,-1.1595,-1.1602,-1.1617,-1.1628,-1.1662,-1.1725,-1.1683,-1.1688,-1.17,-1.1781,-1.18,-1.1807,-1.1858,-1.1845,-1.1848,-1.1851,-1.1852,-1.1921,-1.1921,0,0,0,0,0,0,-1.1467,-1.1486,-1.1594,-1.16,-1.1545,-1.1619,-1.1632,-1.1655,-1.1725,-1.1736,-1.1699,-1.1702,-1.1794,-1.1803,-1.1811,-1.1831,-1.1849,-1.1852,-1.1855,-1.1922,-1.1921,-1.1921,0,0,0,0,0,0,-1.1464,-1.1476,-1.1589,-1.1544,-1.156,-1.1621,-1.1646,-1.1657,-1.1676,-1.1737,-1.1748,-1.1707,-1.1795,-1.1806,-1.1838,-1.1835,-1.1854,-1.1857,-1.1922,-1.1921,-1.1921,-1.1871,0,0,0,0,0,0,-1.146,-1.1475,-1.1481,-1.1544,-1.1562,-1.1615,-1.1646,-1.1658,-1.1682,-1.1687,-1.1747,-1.1758,-1.1796,-1.1832,-1.1841,-1.1841,-1.186,-1.1922,-1.1922,-1.1921,-1.1873,-1.1869,-1.1865,0,0,0,0,0,-1.1454,-1.1462,-1.1481,-1.1494,-1.1571,-1.1615,-1.1625,-1.1669,-1.1682,-1.1688,-1.1727,-1.1756,-1.1834,-1.1834,-1.1846,-1.1846,-1.1923,-1.1922,-1.1921,-1.1875,-1.187,-1.1865,0,0,0,0,0,0,-1.1397,-1.1472,-1.1493,-1.1522,-1.1562,-1.1625,-1.1635,-1.1662,-1.1699,-1.1702,-1.1755,-1.1768,-1.1794,-1.1824,-1.1823,-1.1863,-1.1882,-1.1883,-1.1843,-1.1838,-1.1834,-1.1827,-1.1863,0,0,0,0,0,-1.1387,-1.1417,-1.1481,-1.15,-1.1519,-1.1573,-1.1594,-1.1625,-1.1668,-1.1684,-1.1726,-1.1766,-1.1799,-1.182,-1.1855,-1.1878,-1.1892,-1.1884,-1.188,-1.1876,-1.1877,-1.1891,-1.1888,-1.1918,-1.1918,-1.1918,0,0,-1.1369,-1.1413,-1.1429,-1.149,-1.1524,-1.1553,-1.1587,-1.1616,-1.1638,-1.1689,-1.1722,-1.1753,-1.1801,-1.1829,-1.1843,-1.1854,-1.1871,-1.1875,-1.1872,-1.1874,-1.189,-1.1887,-1.1884,-1.1917,-1.1918,-1.1918,0,0,-1.1349,-1.1386,-1.1406,-1.144,-1.1492,-1.1528,-1.1533,-1.1592,-1.1615,-1.165,-1.1688,-1.1714,-1.1771,-1.1804,-1.1828,-1.182,-1.1848,-1.183,-1.1809,-1.1823,-1.182,-1.1818,-1.1816,-1.1814,-1.183,-1.183,-1.183,0,-1.1319,-1.1365,-1.1413,-1.144,-1.1466,-1.1514,-1.1534,-1.1564,-1.1624,-1.164,-1.1652,-1.1725,-1.176,-1.1796,-1.1794,-1.1812,-1.1819,-1.1824,-1.1817,-1.1815,-1.1814,-1.1812,-1.1811,-1.1828,-1.1828,-1.1828,-1.1829,0,-1.1325,-1.1357,-1.1367,-1.1424,-1.1451,-1.1475,-1.1525,-1.1546,-1.1575,-1.1609,-1.1643,-1.1687,-1.1731,-1.1742,-1.177,-1.1782,-1.1787,-1.1807,-1.1827,-1.1808,-1.1807,-1.1807,-1.1824,-1.1825,-1.1826,-1.1826,0,0,-1.1273,-1.1357,-1.136,-1.1386,-1.1447,-1.1472,-1.1497,-1.1541,-1.1558,-1.1597,-1.162,-1.1667,-1.1686,-1.1713,-1.1745,-1.1756,-1.1747,-1.1775,-1.1777,-1.1768,-1.1763,-1.1748,-1.1746,-1.1766,-1.1766,-1.1766,-1.1759,0,-1.1263,-1.1312,-1.1356,-1.1389,-1.1418,-1.1463,-1.1485,-1.1524,-1.1557,-1.1586,-1.1622,-1.1655,-1.1677,-1.1694,-1.1707,-1.1745,-1.1747,-1.1747,-1.1787,-1.1788,-1.1774,-1.1746,-1.173,-1.1722,-1.1759,-1.1759,-1.1759,0,-1.1257,-1.1296,-1.1332,-1.1389,-1.1403,-1.1422,-1.1466,-1.1494,-1.1538,-1.1561,-1.1592,-1.1625,-1.1653,-1.167,-1.171,-1.1708,-1.1727,-1.1748,-1.1749,-1.1755,-1.1772,-1.1751,-1.172,-1.1719,-1.1759,-1.1759,-1.1759,0,-1.1216,-1.1276,-1.1306,-1.1327,-1.1395,-1.1407,-1.1436,-1.1481,-1.1505,-1.1543,-1.1559,-1.1599,-1.1621,-1.1651,-1.1694,-1.1702,-1.1729,-1.1749,-1.1748,-1.1747,-1.1752,-1.1751,-1.1724,-1.1764,-1.1764,-1.1764,-1.1764,0,-1.12,-1.122,-1.1288,-1.1306,-1.133,-1.1379,-1.1401,-1.1434,-1.1474,-1.1498,-1.154,-1.1562,-1.1617,-1.1646,-1.1679,-1.1707,-1.1716,-1.1735,-1.1744,-1.1732,-1.1729,-1.1745,-1.1747,-1.1763,-1.1763,-1.1764,-1.1764,0,-1.1157,-1.1204,-1.1239,-1.13,-1.1316,-1.1331,-1.1383,-1.1402,-1.1437,-1.1467,-1.1477,-1.1532,-1.1568,-1.1614,-1.1664,-1.1686,-1.171,-1.1723,-1.1695,-1.17,-1.1697,-1.1696,-1.1679,-1.1679,-1.1718,-1.1717,-1.1717,0,-1.1144,-1.1161,-1.1224,-1.1244,-1.1272,-1.1303,-1.1327,-1.1376,-1.14,-1.1452,-1.1464,-1.1503,-1.1537,-1.1592,-1.1636,-1.1674,-1.1689,-1.168,-1.1695,-1.1682,-1.1689,-1.1687,-1.1689,-1.1676,-1.1676,-1.1675,-1.1675,0,-1.1116,-1.1138,-1.1172,-1.1214,-1.1242,-1.1277,-1.1314,-1.1327,-1.1384,-1.1408,-1.1446,-1.1472,-1.1523,-1.1561,-1.1605,-1.1634,-1.1663,-1.167,-1.1671,-1.1659,-1.1642,-1.1651,-1.1685,-1.167,-1.167,-1.1671,-1.1671,-1.1671,-1.1088,-1.1105,-1.1152,-1.1188,-1.1221,-1.1255,-1.1276,-1.1313,-1.1346,-1.1392,-1.1418,-1.1455,-1.1499,-1.1561,-1.1589,-1.1617,-1.1629,-1.1631,-1.1632,-1.1632,-1.1628,-1.1637,-1.1626,-1.1626,-1.1626,-1.1626,-1.1626,0,-1.1062,-1.1095,-1.1127,-1.1178,-1.1206,-1.1232,-1.1274,-1.1296,-1.1328,-1.1367,-1.1399,-1.1442,-1.1479,-1.1526,-1.1566,-1.158,-1.1594,-1.1588,-1.1588,-1.1594,-1.1616,-1.161,-1.1576,-1.1576,-1.1576,-1.1576,-1.1576,-1.1576,-1.1052,-1.1082,-1.1109,-1.1156,-1.1188,-1.1225,-1.1246,-1.1277,-1.1309,-1.1355,-1.1386,-1.1416,-1.1458,-1.1502,-1.1537,-1.1549,-1.1562,-1.1552,-1.1569,-1.1588,-1.1593,-1.1597,-1.1592,-1.1555,-1.1555,-1.1545,-1.1545,-1.1545]}]]